Location: Dattensoll
(49.9928°N, 9.8954°E)
Time: 00:54:25
(UTC+00:00)

Cosmos 1867 - Pass Details

Date: 19 May 2025
Orbit: 775 x 798 km, 65.0° (Epoch: 22 June)

Event Time Altitude Azimuth Distance (km) Brightness Sun altitude
Rises 19:47:19 0° 320° (NW) 3,314 9.1 -6.2°
Reaches altitude 10° 19:49:49 10° 325° (NW) 2,380 7.7 -6.5°
Maximum altitude 19:55:12 55° 43° (NE) 958 4.0 -7.1°
Drops below altitude 10° 20:00:32 10° 121° (ESE) 2,361 5.4 -7.7°
Enters shadow 20:00:47 - 122° (ESE) 2,456 5.5 -7.7°
